Weather History for McAllen, TX

Change the Weather History Date:

Wednesday, January 23, 2013

  Actual Average Record
Temperature  
Mean Temperature 69 °F 61 °F  
Max Temperature 80 °F 72 °F 91 °F (1972)
Min Temperature 58 °F 51 °F 30 °F (1903)
Degree Days  
Heating Degree Days 0 6  
Month to date heating degree days 157 149  
Since 1 July heating degree days 260 386  
Cooling Degree Days 4 2  
Month to date cooling degree days 24 46  
Year to date cooling degree days 24 46  
Growing Degree Days 18 (Base 50)    
Moisture  
Dew Point 59 °F    
Average Humidity 72    
Maximum Humidity 93    
Minimum Humidity 51    
Precipitation  
Precipitation 0.00 in 0.04 in 0.89 in (1975)
Month to date precipitation 0.98 0.77  
Year to date precipitation 0.98 0.77  
Sea Level Pressure  
Sea Level Pressure 30.26 in    
Wind  
Wind Speed 7 mph (ESE)    
Max Wind Speed 15 mph    
Max Gust Speed 20 mph    
Visibility 10 miles    
Events      
T = Trace of Precipitation, MM = Missing Value Source: NWS Daily Summary

Daily Weather History Graph

Daily Weather History Graph

Search for Another Location

Airport:

Trip Planner

Search our weather history database for the weather conditions in past years. The results will help you decide how hot, cold, wet, or windy it might be!

Date:

Astronomy

Jan. 23, 2013 Rise Set
Actual Time 7:20 AM CST 6:09 PM CST
Civil Twilight 6:56 AM CST 6:34 PM CST
Nautical Twilight 6:28 AM CST 7:01 PM CST
Astronomical Twilight 6:00 AM CST 7:29 PM CST
Moon 3:25 PM CST (1/23) 4:28 AM CST (1/23)
Length of Visible Light 11h 37m
Length of Day
10h 48m
Waxing Gibbous, 89% of the Moon is Illuminated
Jan 23
Waxing Gibbous
Jan 26
Full
Feb 3
Last Quarter
Feb 10
New
Feb 17
First Quarter

Hourly Weather History & Observations

Time (CST) Temp. Heat Index Dew Point Humidity Pressure Visibility Wind Dir Wind Speed Gust Speed Precip Events Conditions
12:53 AM 60.1 °F - 55.0 °F 83% 30.25 in 10.0 mi Calm Calm - N/A   Clear
1:18 AM 62.6 °F - 55.4 °F 77% 30.25 in 10.0 mi NNE 3.5 mph - N/A   Mostly Cloudy
1:53 AM 62.1 °F - 55.9 °F 80% 30.24 in 10.0 mi NE 3.5 mph - N/A   Scattered Clouds
2:19 AM 62.6 °F - 57.2 °F 82% 30.23 in 10.0 mi ENE 6.9 mph - N/A   Mostly Cloudy
2:41 AM 62.6 °F - 55.4 °F 77% 30.23 in 10.0 mi NNE 6.9 mph - N/A   Scattered Clouds
2:53 AM 61.0 °F - 55.9 °F 83% 30.22 in 10.0 mi NE 6.9 mph - N/A   Clear
3:53 AM 61.0 °F - 55.9 °F 83% 30.22 in 10.0 mi ENE 6.9 mph - N/A   Scattered Clouds
4:53 AM 61.0 °F - 57.0 °F 87% 30.23 in 10.0 mi Calm Calm - N/A   Partly Cloudy
5:20 AM 60.8 °F - 57.2 °F 88% 30.24 in 9.0 mi Calm Calm - N/A   Mostly Cloudy
5:53 AM 57.9 °F - 55.9 °F 93% 30.25 in 9.0 mi NNW 3.5 mph - N/A   Mostly Cloudy
6:12 AM 59.0 °F - 55.4 °F 88% 30.25 in 9.0 mi Calm Calm - N/A   Scattered Clouds
6:53 AM 59.0 °F - 55.0 °F 87% 30.27 in 10.0 mi NNW 3.5 mph - N/A   Mostly Cloudy
7:45 AM 59.0 °F - 55.4 °F 88% 30.28 in 9.0 mi NNE 6.9 mph - N/A   Scattered Clouds
7:53 AM 59.0 °F - 55.0 °F 87% 30.28 in 9.0 mi North 5.8 mph - N/A   Scattered Clouds
8:12 AM 60.8 °F - 55.4 °F 82% 30.29 in 9.0 mi North 3.5 mph - N/A   Mostly Cloudy
8:53 AM 61.0 °F - 57.0 °F 87% 30.30 in 8.0 mi North 3.5 mph - 0.00 in   Overcast
9:11 AM 62.6 °F - 57.2 °F 82% 30.30 in 8.0 mi Calm Calm - N/A   Overcast
9:53 AM 66.0 °F - 60.1 °F 81% 30.31 in 10.0 mi ESE 3.5 mph - N/A   Overcast
10:53 AM 72.0 °F - 63.0 °F 73% 30.32 in 10.0 mi SSE 5.8 mph - N/A   Mostly Cloudy
11:24 AM 73.4 °F - 64.4 °F 73% 30.32 in 10.0 mi SE 10.4 mph - N/A   Overcast
11:35 AM 73.4 °F - 64.4 °F 73% 30.32 in 10.0 mi SSE 8.1 mph - N/A   Overcast
11:53 AM 75.0 °F - 64.0 °F 69% 30.31 in 10.0 mi SSE 9.2 mph - N/A   Overcast
12:53 PM 75.9 °F - 63.0 °F 64% 30.27 in 10.0 mi South 9.2 mph - N/A   Overcast
1:03 PM 75.2 °F - 62.6 °F 65% 30.27 in 10.0 mi South 11.5 mph - N/A   Overcast
1:11 PM 77.0 °F - 62.6 °F 61% 30.26 in 10.0 mi South 9.2 mph - N/A   Overcast
1:53 PM 77.0 °F - 62.1 °F 60% 30.25 in 10.0 mi South 6.9 mph - N/A   Overcast
2:53 PM 79.0 °F - 60.1 °F 52% 30.22 in 10.0 mi SSE 10.4 mph - N/A   Mostly Cloudy
3:53 PM 80.1 °F 80.9 °F 60.1 °F 50% 30.21 in 10.0 mi SE 10.4 mph - N/A   Mostly Cloudy
4:53 PM 79.0 °F - 61.0 °F 54% 30.21 in 10.0 mi SSE 8.1 mph - N/A   Partly Cloudy
5:53 PM 75.9 °F - 60.1 °F 58% 30.20 in 10.0 mi SSE 10.4 mph - N/A   Clear
6:53 PM 73.0 °F - 61.0 °F 66% 30.22 in 10.0 mi SE 10.4 mph - N/A   Clear
7:53 PM 70.0 °F - 62.1 °F 76% 30.25 in 10.0 mi SSE 11.5 mph - N/A   Clear
8:53 PM 66.9 °F - 61.0 °F 81% 30.26 in 10.0 mi ESE 8.1 mph - N/A   Clear
9:53 PM 66.0 °F - 61.0 °F 84% 30.26 in 10.0 mi SE 6.9 mph - N/A   Clear
10:53 PM 64.9 °F - 61.0 °F 87% 30.26 in 10.0 mi SE 8.1 mph - N/A   Clear
11:53 PM 64.9 °F - 62.1 °F 90% 30.25 in 10.0 mi SE 9.2 mph - N/A   Clear